FW0659 Weather Reports


time (UTC)temp
C
wind
direction
speed
KPH
gust
KPH
rain 1hr
cm
rain 24hr
cm
rain mn
cm
humidity
%
barometer
mb
20260507020010 8 267 0.0 4.8 0.00 0.69 0.69 87 1009.6
20260507014517 8 268 1.6 4.8 0.00 0.69 0.69 86 1009.6
20260507013024 8 268 1.6 3.2 0.00 0.69 0.69 86 1009.5
20260507011506 8 268 1.6 3.2 0.00 0.69 0.69 86 1009.5
20260507010005 8 268 0.0 4.8 0.00 0.69 0.69 87 1009.2
20260507004503 8 268 0.0 4.8 0.00 0.69 0.69 86 1009.1
20260507003001 8 267 3.2 6.4 0.00 0.69 0.69 87 1009.0
20260507001621 8 267 3.2 11.3 0.00 0.69 0.69 87 1008.9
20260507000100 8 268 1.6 11.3 0.00 0.69 0.69 87 1008.6
20260506234555 8 261 6.4 11.3 0.00 0.69 0.69 87 1008.5
20260506233057 8 267 6.4 11.3 0.00 0.69 0.69 87 1008.4
20260506231551 8 267 4.8 11.3 0.00 0.69 0.69 87 1008.3
20260506230049 9 283 3.2 8.0 0.00 0.69 0.69 87 1008.2
20260506224548 9 267 3.2 11.3 0.00 0.69 0.69 88 1008.2
20260506223103 9 290 3.2 8.0 0.00 0.69 0.69 88 1007.9
20260506221544 9 275 3.2 14.5 0.00 0.69 0.69 88 1007.6
20260506220043 9 313 4.8 17.7 0.00 0.69 0.69 89 1007.5
20260506214542 9 300 11.3 17.7 0.00 0.69 0.69 89 1007.7
20260506213040 9 307 11.3 20.9 0.00 0.69 0.69 89 1007.4
20260506211537 9 318 8.0 22.5 0.00 0.69 0.69 90 1007.1
20260506210038 9 284 6.4 17.7 0.00 0.69 0.69 90 1006.7
20260506204530 9 291 8.0 19.3 0.03 0.69 0.69 90 1006.4
20260506203035 9 286 6.4 16.1 0.03 0.69 0.69 90 1006.2
20260506201526 10 298 8.0 16.1 0.05 0.69 0.69 90 1005.7
20260506200023 10 306 4.8 14.5 0.08 0.69 0.69 90 1005.6
20260506194521 10 303 8.0 22.5 0.05 0.71 0.66 90 1005.6
20260506193019 10 277 8.0 16.1 0.03 0.69 0.64 90 1005.6
20260506191518 10 252 9.7 16.1 0.03 0.69 0.64 89 1005.3
20260506190018 10 260 4.8 9.7 0.00 0.66 0.61 89 1005.0
20260506184514 10 286 4.8 8.0 0.00 0.66 0.61 89 1004.8
20260506183014 10 250 11.3 19.3 0.00 0.66 0.61 89 1004.8
20260506181510 11 282 8.0 19.3 0.00 0.66 0.61 89 1004.5
20260506180007 11 319 8.0 16.1 0.00 0.66 0.61 89 1004.3
20260506174503 12 335 6.4 19.3 0.00 0.69 0.61 88 1003.8
20260506173003 13 284 6.4 14.5 0.00 0.69 0.61 89 1003.7
20260506171603 14 238 9.7 17.7 0.00 0.69 0.61 89 1003.4
20260506170059 15 259 6.4 12.9 0.03 0.69 0.61 89 1003.0
20260506164557 15 266 6.4 12.9 0.03 0.69 0.61 89 1003.2
20260506163103 15 210 6.4 12.9 0.03 0.69 0.61 89 1003.1
20260506161557 15 205 4.8 9.7 0.05 0.69 0.61 89 1003.1
20260506160104 15 226 6.4 12.9 0.05 0.66 0.58 89 1003.3
20260506154550 15 222 4.8 11.3 0.08 0.66 0.58 89 1003.2
20260506153046 15 221 4.8 20.9 0.08 0.66 0.58 89 1003.2
20260506151546 15 198 8.0 12.9 0.08 0.64 0.56 89 1003.3
20260506150043 15 293 0.0 3.2 0.08 0.61 0.53 90 1003.3
20260506144538 15 293 0.0 3.2 0.08 0.58 0.51 90 1003.2
20260506143037 14 293 0.0 3.2 0.13 0.58 0.51 90 1003.2
20260506141535 14 293 0.0 3.2 0.15 0.56 0.48 90 1003.3
20260506140032 14 293 0.0 1.6 0.18 0.53 0.46 90 1003.4
20260506134604 13 293 0.0 3.2 0.23 0.51 0.43 90 1003.5
20260506133030 13 293 0.0 8.0 0.23 0.46 0.38 89 1003.7
20260506131529 13 308 0.0 3.2 0.23 0.41 0.33 89 1004.1
20260506130026 13 308 1.6 4.8 0.20 0.36 0.28 89 1004.3
20260506124525 12 307 1.6 4.8 0.13 0.28 0.20 88 1004.3
20260506123027 12 308 0.0 4.8 0.10 0.23 0.15 88 1004.0
20260506121523 12 307 0.0 3.2 0.05 0.18 0.10 88 1003.9
20260506120022 12 308 0.0 1.6 0.03 0.15 0.08 88 1003.8
20260506114532 12 307 0.0 4.8 0.03 0.20 0.08 87 1004.2
20260506113021 12 307 0.0 3.2 0.00 0.18 0.05 87 1004.3
20260506111520 12 308 0.0 3.2 0.03 0.18 0.05 87 1004.5
20260506110019 12 308 0.0 3.2 0.03 0.18 0.05 86 1004.3
20260506104519 12 307 0.0 3.2 0.03 0.18 0.05 86 1004.3
20260506103025 12 308 0.0 4.8 0.03 0.18 0.05 86 1004.3
20260506101516 12 308 0.0 1.6 0.00 0.15 0.03 85 1003.9
20260506100028 12 307 0.0 3.2 0.00 0.15 0.03 84 1003.8
20260506094517 12 308 0.0 3.2 0.03 0.15 0.03 84 1003.9
20260506093013 12 308 0.0 1.6 0.03 0.15 0.03 83 1003.9
20260506091511 12 308 0.0 1.6 0.03 0.15 0.03 83 1004.0
20260506090011 12 308 0.0 3.2 0.03 0.15 0.03 83 1004.2
20260506084508 12 308 0.0 3.2 0.00 0.13 0.00 82 1004.4
20260506083008 12 308 0.0 8.0 0.00 0.13 0.00 81 1004.6
20260506081509 12 309 3.2 8.0 0.00 0.13 0.00 80 1004.6
20260506073100 13 17 0.0 6.4 0.00 0.13 0.00 79 1004.4
20260506071559 13 33 3.2 6.4 0.00 0.13 0.00 79 1004.4
20260506070124 13 13 3.2 8.0 0.00 0.13 0.00 79 1004.3
20260506061550 13 5 3.2 4.8 0.00 0.13 0.00 79 1005.0
20260506044540 14 5 0.0 0.0 0.00 0.13 0.00 77 1006.1
20260506043038 14 5 0.0 1.6 0.00 0.13 0.00 76 1006.1
20260506041539 14 5 0.0 3.2 0.00 0.13 0.00 76 1006.1
20260506040034 14 5 0.0 1.6 0.00 0.13 0.00 75 1006.3
20260506034532 14 5 0.0 6.4 0.00 0.13 0.13 74 1006.4
20260506033032 15 9 3.2 6.4 0.00 0.13 0.13 74 1006.8
20260506031537 15 9 0.0 8.0 0.00 0.13 0.13 74 1006.6
20260506030029 15 20 3.2 9.7 0.00 0.13 0.13 74 1006.5
20260506024537 15 338 4.8 19.3 0.00 0.13 0.13 75 1006.5
20260506023022 16 10 16.1 27.4 0.00 0.13 0.13 77 1006.5
20260506021520 17 351 1.6 6.4 0.00 0.13 0.13 80 1006.1